Location: Maiden
(35.5760°N, 81.2120°W)
Time: 02:38:36
(UTC-04:00)

A-11 Canister half - Pass Details

Date: 06 August 2020
Orbit: 1527 x 1682 km, 47.3° (Epoch: 25 September)

Event Time Altitude Azimuth Distance (km) Brightness Sun altitude
Rises 18:18:45 0° 296° (WNW) 4,931 12.8 23.9°
Reaches altitude 10° 18:22:09 10° 302° (WNW) 3,933 12.4 23.2°
Maximum altitude 18:31:49 48° 15° (NNE) 2,058 9.9 21.2°
Drops below altitude 10° 18:41:13 10° 88° (E) 3,828 10.6 19.3°
Sets 18:44:28 0° 94° (E) 4,791 11.0 18.7°
